Location: Newark
(27.9675°N, 86.8869°E)
Time: 03:35:21
(UTC+00:00)

Courier 1B Rocket - Pass Details

Date: 19 October 2019
Orbit: 920 x 1202 km, 28.2° (Epoch: 19 November)

Event Time Altitude Azimuth Distance (km) Brightness Sun altitude
Rises 02:36:03 0° 279° (W) 3,624 7.5 28.4°
Reaches altitude 10° 02:38:41 10° 274° (W) 2,709 6.9 28.9°
Maximum altitude 02:45:02 52° 199° (SSW) 1,240 6.1 30.0°
Drops below altitude 10° 02:51:51 10° 125° (SE) 2,900 9.1 31.3°
Sets 02:54:46 0° 121° (ESE) 3,900 9.3 31.8°
